AQUA

Last updated on Thu Sep 10 2026 00:02:08 GMT+0000 (Coordinated Universal Time)

1 27424U 02022A 26252.56846796 .00000501 00000+0 10943-3 0 9998 2 27424 98.4380 223.5786 0001682 72.0928 352.9310 14.62195304295601
UTC large
Height (km)
Speed (km/s)
/
Latitude / Longitude
Inclination (degrees)
Orbital Period (minutes)
Azimuth
Elevation
Range (km)
Doppler Factor

Next 0 passes for location: London (51.5072 / 0.1276)

No passes found over London.
AQUA